Weather Roundup
Issued by NWS

Home | Current Version | Previous Version | Graphics & Text | Print | Product List | Glossary Off
Versions: 1 2 3 4 5 6 7 8 9 10 11 12 13 14 15 16 17 18 19 20 21 22 23 24 25 26 27 28 29 30 31 32 33 34 35 36 37 38 39 40 41 42 43 44 45 46 47 48 49 50

336
NZUS93 KARX 261310
HRRWXR

CURRENT HOURLY OBSERVATIONS ACROSS
MUCH OF THE UPPER MISSISSIPPI VALLEY
NATIONAL WEATHER SERVICE LA CROSSE WI
800 AM CDT WED JUL 26 2017


...SOUTHEAST MINNESOTA...


CITY           SKY/WX    TMP DP  RH WIND       PRES   REMARKS
ROCHESTER      LGT RAIN  69  68  96 SE8       30.04F
ROCHESTER/MAYO CLOUDY    69  69 100 CALM      30.03F
WINONA         CLOUDY    72  68  88 CALM      30.02S
AUSTIN         RAIN      72  66  83 E3        30.03S
ALBERT LEA     HVY RAIN  70  70 100 CALM      30.03R
DODGE CENTER   LGT RAIN  68  66  94 CALM      30.01F
PRESTON        CLOUDY    70  66  85 NE6       30.06S
OWATONNA       CLOUDY    70  66  88 CALM      30.00R
FARIBAULT      LGT RAIN  70  68  94 SE7       29.99F
$$

...ELSEWHERE IN MINNESOTA...


CITY           SKY/WX    TMP DP  RH WIND       PRES   REMARKS
MINNEAPOLIS    LGT RAIN  72  68  87 S7        30.01R
INTNL FALLS    SUNNY     66  61  84 NW9       29.95R
DULUTH         CLOUDY    67  64  90 SW6       30.00R
RED WING       CLOUDY    70  66  88 CALM      29.99S
REDWOOD FALLS  CLOUDY    71  68  90 CALM      30.01R
MANKATO        CLOUDY    71  70  96 S5        30.00S
WORTHINGTON    CLOUDY    70  68  93 CALM      30.04S
FAIRMONT       LGT RAIN  70  68  93 NE6       30.01F
$$

...SOUTHWEST WISCONSIN...


CITY           SKY/WX    TMP DP  RH WIND       PRES   REMARKS
LA CROSSE      CLOUDY    78  70  76 CALM      30.01F
PRAIRIE DU CHI CLOUDY    73  67  80 S3        30.03R
BOSCOBEL       CLOUDY    73  68  84 W3        30.03S
LONE ROCK      CLOUDY    69  67  93 CALM      30.03F
PLATTEVILLE    CLOUDY    69  69 100 S7        30.06S
FORT MC COY    CLOUDY    70  67  90 CALM      30.05R
CAMP DOUGLAS   PTSUNNY   70  68  94 W7        30.04R
MAUSTON-NEW LI CLOUDY    71  68  90 CALM      30.03R
VIROQUA        FAIR      70  70 100 NW13      30.07R
WIS DELLS      CLOUDY    70  64  81 SW9       30.03R
$$

...ELSEWHERE IN WISCONSIN...


CITY           SKY/WX    TMP DP  RH WIND       PRES   REMARKS
MILWAUKEE      CLOUDY    70  62  76 SW12      30.06F
MADISON        CLOUDY    69  64  84 S8        30.04F
GREEN BAY      CLOUDY    70  66  87 SW9       30.00S
EAU CLAIRE     LGT RAIN  70  70 100 CALM      29.99F
BLACK RVR FLS  FAIR      69  69 100 SE3       30.02F FOG
MEDFORD        RAIN      68  67  96 SW12      30.03S
WAUSAU         HVY RAIN  68  67  96 W15G38    30.03R VSB 1/2
WIS RAPIDS     HVY RAIN  69  67  93 NW9       30.06R VSB 1
MARSHFIELD     LGT RAIN  68  65  90 W10       30.04F FOG
RICE LAKE      RAIN      68  66  93 CALM      30.01R
$$

...NORTHEAST IOWA...


CITY           SKY/WX    TMP DP  RH WIND       PRES   REMARKS
WATERLOO       CLOUDY    72  68  87 S6        30.01S
DUBUQUE        MOSUNNY   69  67  93 S12       30.05S
DECORAH        MOSUNNY   72  70  94 SW5       30.02S
MASON CITY     CLOUDY    72  70  93 SE3       30.02F FOG
CHARLES CITY   CLOUDY    72  72 100 SW3       30.03S
OELWEIN        CLOUDY    72  72 100 S8        30.04S
$$

...ELSEWHERE IN IOWA...


CITY           SKY/WX    TMP DP  RH WIND       PRES   REMARKS
DES MOINES     CLOUDY    75  69  81 S9        29.98F
IOWA CITY      PTSUNNY   73  69  87 SE5       30.04S
FORT DODGE     CLOUDY    73  70  88 SE5       30.00S
MARSHALLTOWN   CLOUDY    74  70  87 SE7       30.00S
CEDAR RAPIDS   NOT AVBL
$$

...NORTHERN ILLINOIS...


CITY           SKY/WX    TMP DP  RH WIND       PRES   REMARKS
CHICAGO-OHARE  CLOUDY    72  61  68 S7        30.08F
CHICAGO-MIDWAY PTSUNNY   71  61  70 S7        30.09S
MOLINE         CLOUDY    73  67  81 S5        30.04S
ROCKFORD       CLOUDY    70  63  78 S5        30.09S
PEORIA         MOSUNNY   73  67  81 S7        30.07S
$$

NOTE: "FAIR" INDICATES FEW OR NO CLOUDS BELOW 12,000 FEET WITH NO
SIGNIFICANT WEATHER AND/OR OBSTRUCTIONS TO VISIBILITY. WIND
SPEEDS ARE IN MILES-PER-HOUR.




USA.gov is the U.S. government's official web portal to all federal, state and local government web resources and services.